Location: Grasslands National Park East Block
(49.0708°N, 106.5295°W)
Time: 07:07:46
(UTC-06:00)

A-11 Canister half - All Passes

Search period start: 17 September 2019 00:00
Search period end: 27 September 2019 00:00
Orbit: 1527 x 1682 km, 47.3° (Epoch: 16 September)

Date Brightness Start Highest point End Pass type
(mag) Time Alt. Az. Time Alt. Az. Time Alt. Az.
17 Sep - 03:22:20 10° SE 03:23:57 11° ESE 03:25:34 10° ESE visible
17 Sep - 05:18:13 10° SSW 05:26:38 39° SE 05:35:18 10° ENE visible
17 Sep - 07:21:17 10° WSW 07:30:46 73° SSE 07:40:34 10° E daylight
17 Sep - 09:26:03 10° W 09:35:43 80° S 09:45:43 10° ESE daylight
17 Sep - 11:30:59 10° WNW 11:40:20 52° SSW 11:49:55 10° SE daylight
17 Sep - 13:37:12 10° W 13:43:45 20° SW 13:50:22 10° S daylight
18 Sep - 04:56:46 10° SSW 05:05:05 37° SE 05:13:36 10° ENE visible
18 Sep - 06:59:43 10° WSW 07:09:08 72° SSE 07:18:54 10° E daylight
18 Sep - 09:04:25 10° W 09:14:04 80° S 09:24:03 10° ESE daylight
18 Sep - 11:09:21 10° WNW 11:18:43 53° SSW 11:28:21 10° SE daylight
18 Sep - 13:15:24 10° W 13:22:11 21° SW 13:29:04 10° S daylight
19 Sep - 04:35:20 10° SSW 04:43:31 35° SE 04:51:55 10° ENE visible
19 Sep - 06:38:08 10° WSW 06:47:31 70° SSE 06:57:15 10° E daylight
19 Sep - 08:42:48 10° W 08:52:26 81° S 09:02:24 10° E daylight
19 Sep - 10:47:43 10° WNW 10:57:07 55° SSW 11:06:46 10° SE daylight
19 Sep - 12:53:38 10° W 13:00:39 22° SW 13:07:45 10° S daylight
20 Sep - 04:13:54 10° SSW 04:21:59 34° SE 04:30:13 10° ENE visible
20 Sep - 06:16:33 10° WSW 06:25:54 69° SSE 06:35:35 10° E visible
20 Sep - 08:21:12 10° W 08:30:47 81° S 08:40:44 10° E daylight
20 Sep - 10:26:06 10° WNW 10:35:30 57° SSW 10:45:11 10° SE daylight
20 Sep - 12:31:53 10° W 12:39:05 24° SW 12:46:24 10° S daylight
21 Sep - 03:52:30 10° SSW 04:00:25 32° SE 04:08:31 10° E visible
21 Sep - 05:54:59 10° WSW 06:04:17 68° SSE 06:13:55 10° E visible
21 Sep - 07:59:34 10° W 08:09:09 81° S 08:19:04 10° E daylight
21 Sep - 10:04:28 10° WNW 10:13:53 58° SSW 10:23:35 10° SE daylight
21 Sep - 12:10:09 10° W 12:17:32 25° SW 12:25:03 10° S daylight
22 Sep - 03:31:05 10° SSW 03:38:52 31° SE 03:46:49 10° E visible
22 Sep - 05:33:25 10° WSW 05:42:40 66° SSE 05:52:16 10° E visible
22 Sep - 07:37:58 10° W 07:47:31 82° S 07:57:24 10° E daylight
22 Sep - 09:42:51 10° WNW 09:52:16 60° SSW 10:01:59 10° SE daylight
22 Sep - 11:48:26 10° W 11:55:58 26° SW 12:03:40 10° S daylight
23 Sep - 03:09:42 10° S 03:17:20 29° SE 03:25:06 10° E visible
23 Sep - 05:11:51 10° SW 05:21:05 65° SSE 05:30:36 10° E visible
23 Sep - 07:16:20 10° W 07:25:53 82° S 07:35:45 10° E daylight
23 Sep - 09:21:14 10° WNW 09:30:40 61° SSW 09:40:23 10° SE daylight
23 Sep - 11:26:43 10° W 11:34:25 27° SW 11:42:16 10° S daylight
24 Sep - 02:48:20 10° S 02:55:47 28° SE 03:03:23 10° E visible
24 Sep - 04:50:17 10° SW 04:59:28 63° SSE 05:08:57 10° E visible
24 Sep - 06:54:44 10° W 07:04:14 82° S 07:14:04 10° E daylight
24 Sep - 08:59:37 10° WNW 09:09:02 63° SSW 09:18:46 10° SE daylight
24 Sep - 11:05:02 10° W 11:12:51 28° SW 11:20:51 10° S daylight
25 Sep - 02:26:58 10° S 02:34:16 27° SE 02:41:40 10° E visible
25 Sep - 04:28:44 10° SW 04:37:53 61° SSE 04:47:18 10° ENE visible
25 Sep - 06:33:08 10° W 06:42:36 82° S 06:52:25 10° E daylight
25 Sep - 08:38:00 10° W 08:47:25 64° SSW 08:57:09 10° SE daylight
25 Sep - 10:43:20 10° W 10:51:18 30° SW 10:59:26 10° S daylight
26 Sep - 02:05:36 10° S 02:12:44 25° SE 02:19:56 10° E visible
26 Sep - 04:07:11 10° SW 04:16:17 60° SSE 04:25:39 10° ENE visible
26 Sep - 06:11:31 10° W 06:20:59 82° S 06:30:45 10° E visible
26 Sep - 08:16:23 10° W 08:25:49 65° SSW 08:35:32 10° ESE daylight
26 Sep - 10:21:39 10° W 10:29:43 31° SW 10:38:00 10° SSE daylight
